Simultaneous Nadir Overpasses (SNOs) Predictions

Prediction of SNOs between METOP-A and NPP Satellite Orbit:

Table of predicted SNOs for the next 14.0 days since TLE Epoch: 9/19/2016
Index Date (METOP-A) Time (METOP-A) Lat,Lon (METOP-A) SZA (METOP-A ) Date (NPP) Time (NPP) Lat,Lon (NPP) SZA (NPP ) Distance(km) Time Diff (sec)
1 10/03/2016 06:41:33 -73.56,-106.96 102.34 10/03/2016 06:40:26 -73.55,-109.81 102.27 89.66 67
2 10/03/2016 07:32:18 73.31, 59.80 77.43 10/03/2016 07:31:08 73.34, 57.96 77.53 58.66 70
3 10/03/2016 08:23:01 -73.24,-133.02 102.62 10/03/2016 08:21:50 -73.25,-134.51 102.57 47.69 71
4 10/03/2016 09:13:45 73.04, 33.86 77.20 10/03/2016 09:12:32 73.04, 33.25 77.23 19.91 73
5 10/03/2016 10:04:28 -72.97,-158.95 102.85 10/03/2016 10:03:14 -72.95,-159.23 102.86 9.55 74
6 10/03/2016
